Location: Llanfihangel-Ystrad
(52.1833°N, 4.1667°W)
Time: 00:18:04
(UTC+00:00)

STARLINK-1129 - Pass Details

Date: 17 February 2020
Orbit: 549 x 550 km, 53.0° (Epoch: 04 April)

Event Time Altitude Azimuth Distance (km) Brightness Sun altitude
Exits shadow 05:13:35 70° 288° (WNW) 592 3.5 -21.4°
Maximum altitude 05:14:01 81° 353° (N) 565 3.5 -21.3°
Drops below altitude 10° 05:18:04 11° 82° (E) 1,788 7.4 -20.7°
Sets 05:20:26 0° 83° (E) 2,731 8.8 -20.3°
